When you browse on this site, cookies collect data to enhance your experience and personalize the content and advertising you see.
Visit our Privacy Policy to learn more. By continuing to use the site, you agree to this use of cookies and data.
  • în România
  • Lista ţărilor
  • Pe 7 zile
  • Temperatura apei
  • Hartă satelitară
  • Meteo pe hartă
  • Widget-uri
  • user-avatar
    Intrare

    Meteo pe oră la Karamyshevo

    Astăzi, 17 Ianuarie, Joi

    Timp Temperatura Precipitaţii Vânt Presiune Umiditate
    00:00 -8°C° 0 mm 4 m/s 731 mmHg 91%
    01:00 -8°C° 0 mm 4 m/s 731 mmHg 90%
    02:00 -8°C° 0 mm 4 m/s 732 mmHg 89%
    03:00 -9°C° 0 mm 4 m/s 732 mmHg 89%
    04:00 -9°C° 0 mm 3 m/s 732 mmHg 89%
    05:00 -9°C° 0 mm 3 m/s 732 mmHg 89%
    06:00 -10°C° 0 mm 3 m/s 732 mmHg 90%
    07:00 -12°C° 0 mm 3 m/s 732 mmHg 92%
    08:00 -13°C° 0 mm 3 m/s 731 mmHg 93%
    09:00 -12°C° 0.1 mm 4 m/s 730 mmHg 93%
    10:00 -12°C° 0.1 mm 4 m/s 730 mmHg 92%
    11:00 -12°C° 0.1 mm 5 m/s 729 mmHg 92%
    12:00 -11°C° 0.5 mm 5 m/s 728 mmHg 92%
    13:00 -10°C° 0.5 mm 5 m/s 728 mmHg 91%
    14:00 -8°C° 0 mm 6 m/s 726 mmHg 91%
    15:00 -6°C° 0.4 mm 6 m/s 726 mmHg 91%
    16:00 -5°C° 0.4 mm 6 m/s 725 mmHg 90%
    17:00 -4°C° 0.4 mm 6 m/s 725 mmHg 89%
    18:00 -3°C° 0.6 mm 6 m/s 724 mmHg 89%
    19:00 -3°C° 0.6 mm 6 m/s 723 mmHg 88%
    20:00 -2°C° 0.6 mm 7 m/s 723 mmHg 88%
    21:00 -2°C° 0.7 mm 6 m/s 723 mmHg 88%
    22:00 -2°C° 0.7 mm 6 m/s 722 mmHg 88%
    23:00 -2°C° 0.7 mm 6 m/s 722 mmHg 88%

    Mâine, 18 Ianuarie, Vineri

    Timp Temperatura Precipitaţii Vânt Presiune Umiditate
    00:00 -2°C° 0.1 mm 6 m/s 723 mmHg 87%
    01:00 -2°C° 0.1 mm 6 m/s 724 mmHg 86%
    02:00 -2°C° 0.1 mm 6 m/s 724 mmHg 84%
    03:00 -3°C° 0 mm 6 m/s 725 mmHg 84%
    04:00 -4°C° 0 mm 5 m/s 726 mmHg 84%
    05:00 -5°C° 0 mm 5 m/s 726 mmHg 83%
    06:00 -5°C° 0 mm 5 m/s 727 mmHg 84%
    07:00 -6°C° 0 mm 5 m/s 728 mmHg 84%
    08:00 -6°C° 0 mm 5 m/s 728 mmHg 85%
    09:00 -7°C° 0.1 mm 5 m/s 729 mmHg 84%
    10:00 -7°C° 0.1 mm 5 m/s 730 mmHg 83%
    11:00 -8°C° 0.1 mm 5 m/s 731 mmHg 81%
    12:00 -8°C° 0 mm 4 m/s 731 mmHg 83%
    13:00 -9°C° 0 mm 4 m/s 732 mmHg 85%
    14:00 -9°C° 0 mm 3 m/s 732 mmHg 86%
    15:00 -10°C° 0 mm 3 m/s 732 mmHg 89%
    16:00 -10°C° 0 mm 2 m/s 733 mmHg 91%
    17:00 -12°C° 0 mm 2 m/s 733 mmHg 93%
    18:00 -12°C° 0 mm 2 m/s 733 mmHg 94%
    19:00 -13°C° 0 mm 2 m/s 733 mmHg 95%
    20:00 -11°C° 0 mm 1 m/s 732 mmHg 95%
    21:00 -11°C° 0 mm 1 m/s 732 mmHg 95%
    22:00 -11°C° 0 mm 1 m/s 732 mmHg 95%
    23:00 -11°C° 0 mm 1 m/s 732 mmHg 95%

    Poimâine, 19 Ianuarie, Sâmbătă

    Timp Temperatura Precipitaţii Vânt Presiune Umiditate
    00:00 -13°C° 0 mm 2 m/s 733 mmHg 96%
    01:00 -14°C° 0 mm 2 m/s 733 mmHg 96%
    02:00 -15°C° 0 mm 2 m/s 734 mmHg 97%
    03:00 -14°C° 0 mm 2 m/s 734 mmHg 96%
    04:00 -13°C° 0 mm 3 m/s 734 mmHg 94%
    05:00 -12°C° 0 mm 3 m/s 735 mmHg 93%
    06:00 -12°C° 0.1 mm 3 m/s 735 mmHg 92%
    07:00 -12°C° 0.1 mm 3 m/s 735 mmHg 91%
    08:00 -10°C° 0.1 mm 3 m/s 735 mmHg 90%
    09:00 -10°C° 0 mm 3 m/s 736 mmHg 90%
    10:00 -10°C° 0 mm 3 m/s 736 mmHg 89%
    11:00 -10°C° 0 mm 3 m/s 737 mmHg 88%
    12:00 -12°C° 0 mm 3 m/s 737 mmHg 89%
    13:00 -12°C° 0 mm 3 m/s 737 mmHg 89%
    14:00 -12°C° 0 mm 3 m/s 737 mmHg 89%
    15:00 -12°C° 0 mm 3 m/s 738 mmHg 91%
    16:00 -13°C° 0 mm 3 m/s 738 mmHg 92%
    17:00 -14°C° 0 mm 3 m/s 738 mmHg 93%
    18:00 -14°C° 0 mm 3 m/s 738 mmHg 94%
    19:00 -14°C° 0 mm 3 m/s 739 mmHg 94%
    20:00 -14°C° 0 mm 3 m/s 739 mmHg 95%
    21:00 -15°C° 0 mm 3 m/s 739 mmHg 95%
    22:00 -15°C° 0 mm 3 m/s 739 mmHg 95%
    23:00 -15°C° 0 mm 3 m/s 740 mmHg 95%

    20 Ianuarie, Duminică

    Timp Temperatura Precipitaţii Vânt Presiune Umiditate
    00:00 -14°C° 0 mm 3 m/s 740 mmHg 95%
    01:00 -13°C° 0 mm 3 m/s 740 mmHg 95%
    02:00 -12°C° 0 mm 3 m/s 740 mmHg 94%
    03:00 -10°C° 0 mm 3 m/s 739 mmHg 93%
    04:00 -10°C° 0 mm 4 m/s 738 mmHg 92%
    05:00 -9°C° 0 mm 4 m/s 738 mmHg 91%
    06:00 -9°C° 0.3 mm 4 m/s 737 mmHg 90%
    07:00 -10°C° 0.3 mm 5 m/s 737 mmHg 90%
    08:00 -10°C° 0.3 mm 5 m/s 737 mmHg 89%
    09:00 -8°C° 0.1 mm 5 m/s 737 mmHg 87%
    10:00 -7°C° 0.1 mm 5 m/s 736 mmHg 85%
    11:00 -7°C° 0.1 mm 5 m/s 736 mmHg 83%
    12:00 -7°C° 0.1 mm 5 m/s 736 mmHg 83%
    13:00 -8°C° 0.1 mm 5 m/s 736 mmHg 83%
    14:00 -8°C° 0.1 mm 5 m/s 737 mmHg 82%
    15:00 -9°C° 0 mm 4 m/s 737 mmHg 85%
    16:00 -10°C° 0 mm 4 m/s 737 mmHg 87%
    17:00 -11°C° 0 mm 4 m/s 737 mmHg 89%
    18:00 -12°C° 0 mm 3 m/s 738 mmHg 91%
    19:00 -13°C° 0 mm 3 m/s 738 mmHg 92%
    20:00 -13°C° 0 mm 3 m/s 739 mmHg 93%
    21:00 -14°C° 0 mm 3 m/s 739 mmHg 94%
    22:00 -15°C° 0 mm 3 m/s 739 mmHg 94%
    23:00 -17°C° 0 mm 3 m/s 739 mmHg 95%

    21 Ianuarie, Luni

    Timp Temperatura Precipitaţii Vânt Presiune Umiditate
    00:00 -16°C° 0 mm 2 m/s 739 mmHg 95%
    01:00 -16°C° 0 mm 2 m/s 740 mmHg 96%
    02:00 -16°C° 0 mm 2 m/s 740 mmHg 97%
    03:00 -16°C° 0 mm 2 m/s 740 mmHg 97%
    04:00 -16°C° 0 mm 2 m/s 740 mmHg 97%
    05:00 -16°C° 0 mm 2 m/s 739 mmHg 97%
    06:00 -16°C° 0 mm 2 m/s 740 mmHg 97%
    07:00 -16°C° 0 mm 2 m/s 740 mmHg 97%
    08:00 -16°C° 0 mm 2 m/s 740 mmHg 97%
    09:00 -16°C° 0 mm 2 m/s 740 mmHg 96%
    10:00 -15°C° 0 mm 2 m/s 741 mmHg 95%
    11:00 -15°C° 0 mm 2 m/s 741 mmHg 94%
    12:00 -15°C° 0 mm 2 m/s 741 mmHg 94%
    13:00 -16°C° 0 mm 2 m/s 741 mmHg 94%
    14:00 -16°C° 0 mm 2 m/s 741 mmHg 94%
    15:00 -16°C° 0 mm 2 m/s 741 mmHg 94%
    16:00 -18°C° 0 mm 3 m/s 741 mmHg 95%
    17:00 -19°C° 0 mm 3 m/s 742 mmHg 95%
    18:00 -19°C° 0 mm 3 m/s 742 mmHg 95%
    19:00 -19°C° 0 mm 3 m/s 742 mmHg 95%
    20:00 -19°C° 0 mm 3 m/s 742 mmHg 95%
    21:00 -21°C° 0 mm 3 m/s 742 mmHg 96%
    22:00 -21°C° 0 mm 3 m/s 742 mmHg 96%
    23:00 -21°C° 0 mm 3 m/s 742 mmHg 96%

    22 Ianuarie, Marţi

    Timp Temperatura Precipitaţii Vânt Presiune Umiditate
    00:00 -22°C° 0 mm 3 m/s 743 mmHg 96%
    01:00 -22°C° 0 mm 3 m/s 743 mmHg 96%
    02:00 -22°C° 0 mm 3 m/s 743 mmHg 97%
    03:00 -20°C° 0 mm 2 m/s 743 mmHg 97%
    04:00 -20°C° 0 mm 2 m/s 743 mmHg 97%
    05:00 -20°C° 0 mm 2 m/s 744 mmHg 97%
    06:00 -19°C° 0 mm 2 m/s 744 mmHg 97%
    07:00 -19°C° 0 mm 2 m/s 744 mmHg 97%
    08:00 -19°C° 0 mm 2 m/s 745 mmHg 97%
    09:00 -18°C° 0 mm 2 m/s 745 mmHg 96%
    10:00 -18°C° 0 mm 2 m/s 745 mmHg 95%
    11:00 -17°C° 0 mm 2 m/s 746 mmHg 94%
    12:00 -16°C° 0 mm 2 m/s 746 mmHg 94%
    13:00 -16°C° 0 mm 2 m/s 746 mmHg 94%
    14:00 -16°C° 0 mm 2 m/s 746 mmHg 94%
    15:00 -17°C° 0 mm 2 m/s 746 mmHg 95%
    16:00 -18°C° 0 mm 2 m/s 746 mmHg 96%
    17:00 -19°C° 0 mm 2 m/s 746 mmHg 97%
    18:00 -19°C° 0 mm 2 m/s 746 mmHg 97%
    19:00 -20°C° 0 mm 2 m/s 746 mmHg 98%
    20:00 -21°C° 0 mm 2 m/s 746 mmHg 98%
    21:00 -21°C° 0 mm 2 m/s 746 mmHg 98%
    22:00 -23°C° 0 mm 2 m/s 746 mmHg 98%
    23:00 -23°C° 0 mm 2 m/s 747 mmHg 99%
    Arată mai mult